Year,Month,Day,Hour,Minute,Value (Times are PST for temperature in C)
2012,10,15,00,00,11.30
2012,10,15,00,01,11.30
2012,10,15,00,02,11.30
2012,10,15,00,03,11.30
2012,10,15,00,04,11.30
2012,10,15,00,05,11.30
2012,10,15,00,06,11.30
2012,10,15,00,07,11.30
2012,10,15,00,08,11.30
2012,10,15,00,09,11.30
2012,10,15,00,10,11.30
2012,10,15,00,11,11.30
2012,10,15,00,12,11.30
2012,10,15,00,13,11.40
2012,10,15,00,14,11.40
2012,10,15,00,15,11.40
2012,10,15,00,16,11.40
2012,10,15,00,17,11.40
2012,10,15,00,18,11.40
2012,10,15,00,19,11.40
2012,10,15,00,20,11.40
2012,10,15,00,21,11.30
2012,10,15,00,22,11.30
2012,10,15,00,23,11.40
2012,10,15,00,24,11.30
2012,10,15,00,25,11.30
2012,10,15,00,26,11.30
2012,10,15,00,27,11.30
2012,10,15,00,28,11.30
2012,10,15,00,29,11.30
2012,10,15,00,30,11.30
2012,10,15,00,31,11.30
2012,10,15,00,32,11.30
2012,10,15,00,33,11.30
2012,10,15,00,34,11.30
2012,10,15,00,35,11.30
2012,10,15,00,36,11.30
2012,10,15,00,37,11.30
2012,10,15,00,38,11.30
2012,10,15,00,39,11.30
2012,10,15,00,40,11.30
2012,10,15,00,41,11.30
2012,10,15,00,42,11.30
2012,10,15,00,43,11.30
2012,10,15,00,44,11.30
2012,10,15,00,45,11.30
2012,10,15,00,46,11.30
2012,10,15,00,47,11.30
2012,10,15,00,48,11.30
2012,10,15,00,49,11.30
2012,10,15,00,50,11.30
2012,10,15,00,51,11.30
2012,10,15,00,52,11.30
2012,10,15,00,53,11.30
2012,10,15,00,54,11.30
2012,10,15,00,55,11.30
2012,10,15,00,56,11.30
2012,10,15,00,57,11.30
2012,10,15,00,58,11.30
2012,10,15,00,59,11.20
2012,10,15,01,00,11.20
2012,10,15,01,01,11.20
2012,10,15,01,02,11.30
2012,10,15,01,03,11.30
2012,10,15,01,04,11.30
2012,10,15,01,05,11.30
2012,10,15,01,06,11.30
2012,10,15,01,07,11.30
2012,10,15,01,08,11.30
2012,10,15,01,09,11.30
2012,10,15,01,10,11.30
2012,10,15,01,11,11.30
2012,10,15,01,12,11.30
2012,10,15,01,13,11.30
2012,10,15,01,14,11.30
2012,10,15,01,15,11.30
2012,10,15,01,16,11.30
2012,10,15,01,17,11.20
2012,10,15,01,18,11.20
2012,10,15,01,19,11.20
2012,10,15,01,20,11.20
2012,10,15,01,21,11.20
2012,10,15,01,22,11.20
2012,10,15,01,23,11.20
2012,10,15,01,24,11.10
2012,10,15,01,25,11.10
2012,10,15,01,26,11.10
2012,10,15,01,27,11.10
2012,10,15,01,28,11.10
2012,10,15,01,29,11.10
2012,10,15,01,30,11.10
2012,10,15,01,31,11.10
2012,10,15,01,32,11.10
2012,10,15,01,33,11.10
2012,10,15,01,34,11.10
2012,10,15,01,35,11.10
2012,10,15,01,36,11.10
2012,10,15,01,37,11.10
2012,10,15,01,38,11.10
2012,10,15,01,39,11.10
2012,10,15,01,40,11.10
2012,10,15,01,41,11.10
2012,10,15,01,42,11.00
2012,10,15,01,43,11.00
2012,10,15,01,44,11.00
2012,10,15,01,45,11.00
2012,10,15,01,46,11.00
2012,10,15,01,47,11.00
2012,10,15,01,48,11.00
2012,10,15,01,49,10.90
2012,10,15,01,50,10.90
2012,10,15,01,51,10.90
2012,10,15,01,52,10.90
2012,10,15,01,53,10.90
2012,10,15,01,54,10.90
2012,10,15,01,55,10.90
2012,10,15,01,56,10.90
2012,10,15,01,57,10.80
2012,10,15,01,58,10.80
2012,10,15,01,59,10.80
2012,10,15,02,00,10.80
2012,10,15,02,01,10.80
2012,10,15,02,02,10.80
2012,10,15,02,03,10.80
2012,10,15,02,04,10.80
2012,10,15,02,05,10.80
2012,10,15,02,06,10.90
2012,10,15,02,07,10.90
2012,10,15,02,08,10.90
2012,10,15,02,09,11.00
2012,10,15,02,10,11.00
2012,10,15,02,11,11.00
2012,10,15,02,12,11.00
2012,10,15,02,13,11.00
2012,10,15,02,14,11.00
2012,10,15,02,15,11.00
2012,10,15,02,16,11.10
2012,10,15,02,17,11.10
2012,10,15,02,18,11.10
2012,10,15,02,19,11.10
2012,10,15,02,20,11.10
2012,10,15,02,21,11.10
2012,10,15,02,22,11.10
2012,10,15,02,23,11.10
2012,10,15,02,24,11.10
2012,10,15,02,25,11.20
2012,10,15,02,26,11.20
2012,10,15,02,27,11.10
2012,10,15,02,28,11.10
2012,10,15,02,29,11.10
2012,10,15,02,30,11.10
2012,10,15,02,31,11.10
2012,10,15,02,32,11.00
2012,10,15,02,33,11.00
2012,10,15,02,34,10.90
2012,10,15,02,35,10.90
2012,10,15,02,36,10.90
2012,10,15,02,37,10.80
2012,10,15,02,38,10.80
2012,10,15,02,39,10.80
2012,10,15,02,40,10.70
2012,10,15,02,41,10.70
2012,10,15,02,42,10.70
2012,10,15,02,43,10.70
2012,10,15,02,44,10.70
2012,10,15,02,45,10.70
2012,10,15,02,46,10.70
2012,10,15,02,47,10.60
2012,10,15,02,48,10.60
2012,10,15,02,49,10.60
2012,10,15,02,50,10.60
2012,10,15,02,51,10.50
2012,10,15,02,52,10.50
2012,10,15,02,53,10.50
2012,10,15,02,54,10.40
2012,10,15,02,55,10.40
2012,10,15,02,56,10.40
2012,10,15,02,57,10.40
2012,10,15,02,58,10.30
2012,10,15,02,59,10.30
2012,10,15,03,00,10.30
2012,10,15,03,01,10.30
2012,10,15,03,02,10.30
2012,10,15,03,03,10.30
2012,10,15,03,04,10.30
2012,10,15,03,05,10.30
2012,10,15,03,06,10.20
2012,10,15,03,07,10.20
2012,10,15,03,08,10.20
2012,10,15,03,09,10.10
2012,10,15,03,10,10.00
2012,10,15,03,11,10.00
2012,10,15,03,12,9.90
2012,10,15,03,13,9.90
2012,10,15,03,14,9.80
2012,10,15,03,15,9.80
2012,10,15,03,16,9.70
2012,10,15,03,17,9.70
2012,10,15,03,18,9.60
2012,10,15,03,19,9.60
2012,10,15,03,20,9.50
2012,10,15,03,21,9.50
2012,10,15,03,22,9.40
2012,10,15,03,23,9.40
2012,10,15,03,24,9.30
2012,10,15,03,25,9.30
2012,10,15,03,26,9.30
2012,10,15,03,27,9.20
2012,10,15,03,28,9.20
2012,10,15,03,29,9.20
2012,10,15,03,30,9.20
2012,10,15,03,31,9.10
2012,10,15,03,32,9.10
2012,10,15,03,33,9.10
2012,10,15,03,34,9.10
2012,10,15,03,35,9.00
2012,10,15,03,36,9.00
2012,10,15,03,37,9.00
2012,10,15,03,38,8.90
2012,10,15,03,39,8.90
2012,10,15,03,40,8.90
2012,10,15,03,41,8.90
2012,10,15,03,42,8.90
2012,10,15,03,43,8.90
2012,10,15,03,44,8.90
2012,10,15,03,45,8.90
2012,10,15,03,46,8.90
2012,10,15,03,47,8.80
2012,10,15,03,48,8.80
2012,10,15,03,49,8.80
2012,10,15,03,50,8.80
2012,10,15,03,51,8.80
2012,10,15,03,52,8.80
2012,10,15,03,53,8.90
2012,10,15,03,54,9.00
2012,10,15,03,55,9.00
2012,10,15,03,56,9.10
2012,10,15,03,57,9.10
2012,10,15,03,58,9.20
2012,10,15,03,59,9.20
2012,10,15,04,00,9.30
2012,10,15,04,01,9.40
2012,10,15,04,02,9.40
2012,10,15,04,03,9.50
2012,10,15,04,04,9.60
2012,10,15,04,05,9.60
2012,10,15,04,06,9.60
2012,10,15,04,07,9.70
2012,10,15,04,08,9.70
2012,10,15,04,09,9.70
2012,10,15,04,10,9.80
2012,10,15,04,11,9.80
2012,10,15,04,12,9.80
2012,10,15,04,13,9.90
2012,10,15,04,14,9.90
2012,10,15,04,15,9.90
2012,10,15,04,16,10.00
2012,10,15,04,17,10.00
2012,10,15,04,18,10.10
2012,10,15,04,19,10.10
2012,10,15,04,20,10.10
2012,10,15,04,21,10.10
2012,10,15,04,22,10.10
2012,10,15,04,23,10.10
2012,10,15,04,24,10.10
2012,10,15,04,25,10.10
2012,10,15,04,26,10.10
2012,10,15,04,27,10.20
2012,10,15,04,28,10.20
2012,10,15,04,29,10.20
2012,10,15,04,30,10.20
2012,10,15,04,31,10.20
2012,10,15,04,32,10.20
2012,10,15,04,33,10.20
2012,10,15,04,34,10.20
2012,10,15,04,35,10.20
2012,10,15,04,36,10.20
2012,10,15,04,37,10.20
2012,10,15,04,38,10.20
2012,10,15,04,39,10.20
2012,10,15,04,40,10.10
2012,10,15,04,41,10.20
2012,10,15,04,42,10.10
2012,10,15,04,43,10.10
2012,10,15,04,44,10.10
2012,10,15,04,45,10.10
2012,10,15,04,46,10.10
2012,10,15,04,47,10.10
2012,10,15,04,48,10.10
2012,10,15,04,49,10.00
2012,10,15,04,50,10.00
2012,10,15,04,51,9.90
2012,10,15,04,52,9.80
2012,10,15,04,53,9.70
2012,10,15,04,54,9.60
2012,10,15,04,55,9.50
2012,10,15,04,56,9.40
2012,10,15,04,57,9.40
2012,10,15,04,58,9.30
2012,10,15,04,59,9.20
2012,10,15,05,00,9.10
2012,10,15,05,01,9.10
2012,10,15,05,02,9.00
2012,10,15,05,03,8.90
2012,10,15,05,04,8.80
2012,10,15,05,05,8.80
2012,10,15,05,06,8.80
2012,10,15,05,07,8.70
2012,10,15,05,08,8.70
2012,10,15,05,09,8.70
2012,10,15,05,10,8.60
2012,10,15,05,11,8.60
2012,10,15,05,12,8.60
2012,10,15,05,13,8.60
2012,10,15,05,14,8.60
2012,10,15,05,15,8.50
2012,10,15,05,16,8.50
2012,10,15,05,17,8.50
2012,10,15,05,18,8.40
2012,10,15,05,19,8.40
2012,10,15,05,20,8.30
2012,10,15,05,21,8.30
2012,10,15,05,22,8.30
2012,10,15,05,23,8.30
2012,10,15,05,24,8.30
2012,10,15,05,25,8.20
2012,10,15,05,26,8.20
2012,10,15,05,27,8.20
2012,10,15,05,28,8.20
2012,10,15,05,29,8.20
2012,10,15,05,30,8.20
2012,10,15,05,31,8.20
2012,10,15,05,32,8.20
2012,10,15,05,33,8.20
2012,10,15,05,34,8.20
2012,10,15,05,35,8.10
2012,10,15,05,36,8.10
2012,10,15,05,37,8.00
2012,10,15,05,38,8.00
2012,10,15,05,39,7.90
2012,10,15,05,40,7.80
2012,10,15,05,41,7.80
2012,10,15,05,42,7.80
2012,10,15,05,43,7.70
2012,10,15,05,44,7.70
2012,10,15,05,45,7.70
2012,10,15,05,46,7.60
2012,10,15,05,47,7.60
2012,10,15,05,48,7.60
2012,10,15,05,49,7.60
2012,10,15,05,50,7.60
2012,10,15,05,51,7.60
2012,10,15,05,52,7.60
2012,10,15,05,53,7.60
2012,10,15,05,54,7.60
2012,10,15,05,55,7.50
2012,10,15,05,56,7.50
2012,10,15,05,57,7.50
2012,10,15,05,58,7.40
2012,10,15,05,59,7.40
2012,10,15,06,00,7.40
2012,10,15,06,01,7.40
2012,10,15,06,02,7.40
2012,10,15,06,03,7.40
2012,10,15,06,04,7.40
2012,10,15,06,05,7.50
2012,10,15,06,06,7.50
2012,10,15,06,07,7.50
2012,10,15,06,08,7.60
2012,10,15,06,09,7.50
2012,10,15,06,10,7.60
2012,10,15,06,11,7.60
2012,10,15,06,12,7.60
2012,10,15,06,13,7.60
2012,10,15,06,14,7.60
2012,10,15,06,15,7.60
2012,10,15,06,16,7.60
2012,10,15,06,17,7.60
2012,10,15,06,18,7.60
2012,10,15,06,19,7.60
2012,10,15,06,20,7.60
2012,10,15,06,21,7.60
2012,10,15,06,22,7.60
2012,10,15,06,23,7.60
2012,10,15,06,24,7.60
2012,10,15,06,25,7.60
2012,10,15,06,26,7.60
2012,10,15,06,27,7.60
2012,10,15,06,28,7.50
2012,10,15,06,29,7.50
2012,10,15,06,30,7.40
2012,10,15,06,31,7.40
2012,10,15,06,32,7.40
2012,10,15,06,33,7.40
2012,10,15,06,34,7.40
2012,10,15,06,35,7.40
2012,10,15,06,36,7.40
2012,10,15,06,37,7.50
2012,10,15,06,38,7.50
2012,10,15,06,39,7.60
2012,10,15,06,40,7.60
2012,10,15,06,41,7.60
2012,10,15,06,42,7.60
2012,10,15,06,43,7.60
2012,10,15,06,44,7.50
2012,10,15,06,45,7.50
2012,10,15,06,46,7.40
2012,10,15,06,47,7.40
2012,10,15,06,48,7.30
2012,10,15,06,49,7.20
2012,10,15,06,50,7.20
2012,10,15,06,51,7.20
2012,10,15,06,52,7.20
2012,10,15,06,53,7.20
2012,10,15,06,54,7.20
2012,10,15,06,55,7.20
2012,10,15,06,56,7.20
2012,10,15,06,57,7.20
2012,10,15,06,58,7.20
2012,10,15,06,59,7.30
2012,10,15,07,00,7.30
2012,10,15,07,01,7.30
2012,10,15,07,02,7.30
2012,10,15,07,03,7.40
2012,10,15,07,04,7.40
2012,10,15,07,05,7.40
2012,10,15,07,06,7.40
2012,10,15,07,07,7.40
2012,10,15,07,08,7.40
2012,10,15,07,09,7.30
2012,10,15,07,10,7.30
2012,10,15,07,11,7.30
2012,10,15,07,12,7.30
2012,10,15,07,13,7.30
2012,10,15,07,14,7.30
2012,10,15,07,15,7.30
2012,10,15,07,16,7.40
2012,10,15,07,17,7.40
2012,10,15,07,18,7.50
2012,10,15,07,19,7.50
2012,10,15,07,20,7.60
2012,10,15,07,21,7.60
2012,10,15,07,22,7.60
2012,10,15,07,23,7.70
2012,10,15,07,24,7.70
2012,10,15,07,25,7.70
2012,10,15,07,26,7.70
2012,10,15,07,27,7.70
2012,10,15,07,28,7.70
2012,10,15,07,29,7.70
2012,10,15,07,30,7.70
2012,10,15,07,31,7.70
2012,10,15,07,32,7.80
2012,10,15,07,33,7.80
2012,10,15,07,34,7.80
2012,10,15,07,35,7.80
2012,10,15,07,36,7.80
2012,10,15,07,37,7.90
2012,10,15,07,38,7.90
2012,10,15,07,39,8.00
2012,10,15,07,40,8.00
2012,10,15,07,41,8.10
2012,10,15,07,42,8.20
2012,10,15,07,43,8.20
2012,10,15,07,44,8.30
2012,10,15,07,45,8.40
2012,10,15,07,46,8.50
2012,10,15,07,47,8.50
2012,10,15,07,48,8.60
2012,10,15,07,49,8.70
2012,10,15,07,50,8.80
2012,10,15,07,51,8.80
2012,10,15,07,52,8.80
2012,10,15,07,53,8.90
2012,10,15,07,54,8.90
2012,10,15,07,55,9.00
2012,10,15,07,56,9.00
2012,10,15,07,57,9.00
2012,10,15,07,58,9.10
2012,10,15,07,59,9.10
2012,10,15,08,00,9.10
2012,10,15,08,01,9.10
2012,10,15,08,02,9.10
2012,10,15,08,03,9.10
2012,10,15,08,04,9.10
2012,10,15,08,05,9.10
2012,10,15,08,06,9.20
2012,10,15,08,07,9.20
2012,10,15,08,08,9.20
2012,10,15,08,09,9.20
2012,10,15,08,10,9.20
2012,10,15,08,11,9.20
2012,10,15,08,12,9.20
2012,10,15,08,13,9.20
2012,10,15,08,14,9.20
2012,10,15,08,15,9.30
2012,10,15,08,16,9.30
2012,10,15,08,17,9.30
2012,10,15,08,18,9.30
2012,10,15,08,19,9.30
2012,10,15,08,20,9.30
2012,10,15,08,21,9.40
2012,10,15,08,22,9.40
2012,10,15,08,23,9.40
2012,10,15,08,24,9.40
2012,10,15,08,25,9.40
2012,10,15,08,26,9.40
2012,10,15,08,27,9.40
2012,10,15,08,28,9.40
2012,10,15,08,29,9.50
2012,10,15,08,30,9.50
2012,10,15,08,31,9.50
2012,10,15,08,32,9.50
2012,10,15,08,33,9.50
2012,10,15,08,34,9.50
2012,10,15,08,35,9.50
2012,10,15,08,36,9.60
2012,10,15,08,37,9.60
2012,10,15,08,38,9.60
2012,10,15,08,39,9.60
2012,10,15,08,40,9.60
2012,10,15,08,41,9.60
2012,10,15,08,42,9.60
2012,10,15,08,43,9.70
2012,10,15,08,44,9.70
2012,10,15,08,45,9.70
2012,10,15,08,46,9.70
2012,10,15,08,47,9.70
2012,10,15,08,48,9.70
2012,10,15,08,49,9.80
2012,10,15,08,50,9.80
2012,10,15,08,51,9.80
2012,10,15,08,52,9.80
2012,10,15,08,53,9.80
2012,10,15,08,54,9.80
2012,10,15,08,55,9.90
2012,10,15,08,56,9.90
2012,10,15,08,57,9.90
2012,10,15,08,58,9.90
2012,10,15,08,59,9.90
2012,10,15,09,00,9.90
2012,10,15,09,01,9.90
2012,10,15,09,02,10.00
2012,10,15,09,03,10.00
2012,10,15,09,04,10.00
2012,10,15,09,05,10.10
2012,10,15,09,06,10.10
2012,10,15,09,07,10.10
2012,10,15,09,08,10.10
2012,10,15,09,09,10.10
2012,10,15,09,10,10.20
2012,10,15,09,11,10.20
2012,10,15,09,12,10.20
2012,10,15,09,13,10.20
2012,10,15,09,14,10.30
2012,10,15,09,15,10.30
2012,10,15,09,16,10.30
2012,10,15,09,17,10.30
2012,10,15,09,18,10.30
2012,10,15,09,19,10.30
2012,10,15,09,20,10.30
2012,10,15,09,21,10.30
2012,10,15,09,22,10.30
2012,10,15,09,23,10.30
2012,10,15,09,24,10.30
2012,10,15,09,25,10.30
2012,10,15,09,26,10.30
2012,10,15,09,27,10.30
2012,10,15,09,28,10.40
2012,10,15,09,29,10.40
2012,10,15,09,30,10.40
2012,10,15,09,31,10.40
2012,10,15,09,32,10.40
2012,10,15,09,33,10.40
2012,10,15,09,34,10.40
2012,10,15,09,35,10.40
2012,10,15,09,36,10.40
2012,10,15,09,37,10.40
2012,10,15,09,38,10.40
2012,10,15,09,39,10.40
2012,10,15,09,40,10.40
2012,10,15,09,41,10.40
2012,10,15,09,42,10.40
2012,10,15,09,43,10.40
2012,10,15,09,44,10.40
2012,10,15,09,45,10.40
2012,10,15,09,46,10.40
2012,10,15,09,47,10.40
2012,10,15,09,48,10.40
2012,10,15,09,49,10.50
2012,10,15,09,50,10.50
2012,10,15,09,51,10.50
2012,10,15,09,52,10.60
2012,10,15,09,53,10.60
2012,10,15,09,54,10.60
2012,10,15,09,55,10.60
2012,10,15,09,56,10.70
2012,10,15,09,57,10.70
2012,10,15,09,58,10.80
2012,10,15,09,59,10.80
2012,10,15,10,00,10.80
2012,10,15,10,01,10.90
2012,10,15,10,02,11.00
2012,10,15,10,03,11.00
2012,10,15,10,04,11.10
2012,10,15,10,05,11.10
2012,10,15,10,06,11.10
2012,10,15,10,07,11.20
2012,10,15,10,08,11.20
2012,10,15,10,09,11.20
2012,10,15,10,10,11.20
2012,10,15,10,11,11.30
2012,10,15,10,12,11.30
2012,10,15,10,13,11.30
2012,10,15,10,14,11.40
2012,10,15,10,15,11.40
2012,10,15,10,16,11.40
2012,10,15,10,17,11.50
2012,10,15,10,18,11.60
2012,10,15,10,19,11.60
2012,10,15,10,20,11.70
2012,10,15,10,21,11.70
2012,10,15,10,22,11.70
2012,10,15,10,23,11.70
2012,10,15,10,24,11.80
2012,10,15,10,25,11.80
2012,10,15,10,26,11.80
2012,10,15,10,27,11.80
2012,10,15,10,28,11.90
2012,10,15,10,29,11.90
2012,10,15,10,30,11.90
2012,10,15,10,31,11.90
2012,10,15,10,32,11.90
2012,10,15,10,33,11.90
2012,10,15,10,34,12.00
2012,10,15,10,35,12.00
2012,10,15,10,36,12.00
2012,10,15,10,37,12.10
2012,10,15,10,38,12.10
2012,10,15,10,39,12.10
2012,10,15,10,40,12.20
2012,10,15,10,41,12.20
2012,10,15,10,42,12.20
2012,10,15,10,43,12.30
2012,10,15,10,44,12.30
2012,10,15,10,45,12.30
2012,10,15,10,46,12.30
2012,10,15,10,47,12.30
2012,10,15,10,48,12.40
2012,10,15,10,49,12.40
2012,10,15,10,50,12.50
2012,10,15,10,51,12.50
2012,10,15,10,52,12.50
2012,10,15,10,53,12.50
2012,10,15,10,54,12.40
2012,10,15,10,55,12.40
2012,10,15,10,56,12.40
2012,10,15,10,57,12.40
2012,10,15,10,58,12.30
2012,10,15,10,59,12.20
2012,10,15,11,00,12.10
2012,10,15,11,01,12.00
2012,10,15,11,02,11.90
2012,10,15,11,03,11.80
2012,10,15,11,04,11.80
2012,10,15,11,05,11.70
2012,10,15,11,06,11.70
2012,10,15,11,07,11.60
2012,10,15,11,08,11.60
2012,10,15,11,09,11.60
2012,10,15,11,10,11.60
2012,10,15,11,11,11.50
2012,10,15,11,12,11.50
2012,10,15,11,13,11.40
2012,10,15,11,14,11.40
2012,10,15,11,15,11.40
2012,10,15,11,16,11.40
2012,10,15,11,17,11.40
2012,10,15,11,18,11.30
2012,10,15,11,19,11.30
2012,10,15,11,20,11.30
2012,10,15,11,21,11.30
2012,10,15,11,22,11.40
2012,10,15,11,23,11.40
2012,10,15,11,24,11.40
2012,10,15,11,25,11.40
2012,10,15,11,26,11.40
2012,10,15,11,27,11.40
2012,10,15,11,28,11.40
2012,10,15,11,29,11.50
2012,10,15,11,30,11.50
2012,10,15,11,31,11.50
2012,10,15,11,32,11.60
2012,10,15,11,33,11.60
2012,10,15,11,34,11.60
2012,10,15,11,35,11.60
2012,10,15,11,36,11.60
2012,10,15,11,37,11.60
2012,10,15,11,38,11.60
2012,10,15,11,39,11.60
2012,10,15,11,40,11.60
2012,10,15,11,41,11.60
2012,10,15,11,42,11.60
2012,10,15,11,43,11.60
2012,10,15,11,44,11.60
2012,10,15,11,45,11.70
2012,10,15,11,46,11.70
2012,10,15,11,47,11.70
2012,10,15,11,48,11.80
2012,10,15,11,49,11.80
2012,10,15,11,50,11.80
2012,10,15,11,51,11.80
2012,10,15,11,52,11.80
2012,10,15,11,53,11.90
2012,10,15,11,54,11.90
2012,10,15,11,55,12.00
2012,10,15,11,56,12.10
2012,10,15,11,57,12.10
2012,10,15,11,58,12.20
2012,10,15,11,59,12.20
2012,10,15,12,00,12.20
2012,10,15,12,01,12.10
2012,10,15,12,02,12.10
2012,10,15,12,03,12.10
2012,10,15,12,04,12.10
2012,10,15,12,05,12.10
2012,10,15,12,06,12.10
2012,10,15,12,07,12.10
2012,10,15,12,08,12.10
2012,10,15,12,09,12.10
2012,10,15,12,10,12.00
2012,10,15,12,11,12.00
2012,10,15,12,12,12.00
2012,10,15,12,13,11.90
2012,10,15,12,14,11.90
2012,10,15,12,15,11.90
2012,10,15,12,16,11.90
2012,10,15,12,17,11.90
2012,10,15,12,18,11.90
2012,10,15,12,19,11.90
2012,10,15,12,20,11.90
2012,10,15,12,21,11.90
2012,10,15,12,22,11.90
2012,10,15,12,23,11.90
2012,10,15,12,24,11.90
2012,10,15,12,25,11.90
2012,10,15,12,26,11.90
2012,10,15,12,27,11.90
2012,10,15,12,28,11.90
2012,10,15,12,29,11.90
2012,10,15,12,30,11.90
2012,10,15,12,31,11.80
2012,10,15,12,32,11.80
2012,10,15,12,33,11.80
2012,10,15,12,34,11.80
2012,10,15,12,35,11.80
2012,10,15,12,36,11.80
2012,10,15,12,37,11.70
2012,10,15,12,38,11.70
2012,10,15,12,39,11.70
2012,10,15,12,40,11.70
2012,10,15,12,41,11.70
2012,10,15,12,42,11.70
2012,10,15,12,43,11.70
2012,10,15,12,44,11.70
2012,10,15,12,45,11.70
2012,10,15,12,46,11.70
2012,10,15,12,47,11.80
2012,10,15,12,48,11.80
2012,10,15,12,49,11.80
2012,10,15,12,50,11.80
2012,10,15,12,51,11.80
2012,10,15,12,52,11.80
2012,10,15,12,53,11.80
2012,10,15,12,54,11.80
2012,10,15,12,55,11.80
2012,10,15,12,56,11.80
2012,10,15,12,57,11.90
2012,10,15,12,58,11.90
2012,10,15,12,59,11.90
2012,10,15,13,00,11.90
2012,10,15,13,01,11.90
2012,10,15,13,02,11.80
2012,10,15,13,03,11.90
2012,10,15,13,04,11.90
2012,10,15,13,05,11.80
2012,10,15,13,06,11.80
2012,10,15,13,07,11.90
2012,10,15,13,08,11.90
2012,10,15,13,09,11.90
2012,10,15,13,10,11.90
2012,10,15,13,11,11.90
2012,10,15,13,12,11.90
2012,10,15,13,13,11.90
2012,10,15,13,14,11.90
2012,10,15,13,15,11.90
2012,10,15,13,16,11.80
2012,10,15,13,17,11.80
2012,10,15,13,18,11.80
2012,10,15,13,19,11.80
2012,10,15,13,20,11.80
2012,10,15,13,21,11.80
2012,10,15,13,22,11.80
2012,10,15,13,23,11.80
2012,10,15,13,24,11.90
2012,10,15,13,25,11.90
2012,10,15,13,26,11.90
2012,10,15,13,27,11.90
2012,10,15,13,28,11.90
2012,10,15,13,29,11.90
2012,10,15,13,30,11.90
2012,10,15,13,31,11.90
2012,10,15,13,32,11.90
2012,10,15,13,33,11.90
2012,10,15,13,34,11.90
2012,10,15,13,35,11.90
2012,10,15,13,36,11.90
2012,10,15,13,37,11.90
2012,10,15,13,38,11.90
2012,10,15,13,39,11.90
2012,10,15,13,40,11.90
2012,10,15,13,41,11.90
2012,10,15,13,42,11.90
2012,10,15,13,43,11.90
2012,10,15,13,44,11.90
2012,10,15,13,45,11.90
2012,10,15,13,46,11.80
2012,10,15,13,47,11.80
2012,10,15,13,48,11.80
2012,10,15,13,49,11.80
2012,10,15,13,50,11.80
2012,10,15,13,51,11.80
2012,10,15,13,52,11.80
2012,10,15,13,53,11.80
2012,10,15,13,54,11.80
2012,10,15,13,55,11.80
2012,10,15,13,56,11.80
2012,10,15,13,57,11.80
2012,10,15,13,58,11.80
2012,10,15,13,59,11.80
2012,10,15,14,00,11.80
2012,10,15,14,01,11.80
2012,10,15,14,02,11.80
2012,10,15,14,03,11.80
2012,10,15,14,04,11.80
2012,10,15,14,05,11.80
2012,10,15,14,06,11.80
2012,10,15,14,07,11.80
2012,10,15,14,08,11.80
2012,10,15,14,09,11.80
2012,10,15,14,10,11.80
2012,10,15,14,11,11.80
2012,10,15,14,12,11.80
2012,10,15,14,13,11.80
2012,10,15,14,14,11.80
2012,10,15,14,15,11.80
2012,10,15,14,16,11.70
2012,10,15,14,17,11.70
2012,10,15,14,18,11.70
2012,10,15,14,19,11.70
2012,10,15,14,20,11.70
2012,10,15,14,21,11.70
2012,10,15,14,22,11.70
2012,10,15,14,23,11.70
2012,10,15,14,24,11.70
2012,10,15,14,25,11.70
2012,10,15,14,26,11.70
2012,10,15,14,27,11.70
2012,10,15,14,28,11.70
2012,10,15,14,29,11.70
2012,10,15,14,30,11.60
2012,10,15,14,31,11.60
2012,10,15,14,32,11.60
2012,10,15,14,33,11.60
2012,10,15,14,34,11.60
2012,10,15,14,35,11.60
2012,10,15,14,36,11.60
2012,10,15,14,37,11.60
2012,10,15,14,38,11.60
2012,10,15,14,39,11.60
2012,10,15,14,40,11.60
2012,10,15,14,41,11.60
2012,10,15,14,42,11.50
2012,10,15,14,43,11.50
2012,10,15,14,44,11.50
2012,10,15,14,45,11.50
2012,10,15,14,46,11.50
2012,10,15,14,47,11.40
2012,10,15,14,48,11.40
2012,10,15,14,49,11.40
2012,10,15,14,50,11.40
2012,10,15,14,51,11.40
2012,10,15,14,52,11.40
2012,10,15,14,53,11.40
2012,10,15,14,54,11.30
2012,10,15,14,55,11.30
2012,10,15,14,56,11.30
2012,10,15,14,57,11.30
2012,10,15,14,58,11.30
2012,10,15,14,59,11.30
2012,10,15,15,00,11.30
2012,10,15,15,01,11.30
2012,10,15,15,02,11.30
2012,10,15,15,03,11.30
2012,10,15,15,04,11.30
2012,10,15,15,05,11.30
2012,10,15,15,06,11.30
2012,10,15,15,07,11.30
2012,10,15,15,08,11.30
2012,10,15,15,09,11.30
2012,10,15,15,10,11.30
2012,10,15,15,11,11.30
2012,10,15,15,12,11.30
2012,10,15,15,13,11.30
2012,10,15,15,14,11.30
2012,10,15,15,15,11.30
2012,10,15,15,16,11.30
2012,10,15,15,17,11.30
2012,10,15,15,18,11.40
2012,10,15,15,19,11.40
2012,10,15,15,20,11.40
2012,10,15,15,21,11.40
2012,10,15,15,22,11.40
2012,10,15,15,23,11.40
2012,10,15,15,24,11.40
2012,10,15,15,25,11.40
2012,10,15,15,26,11.40
2012,10,15,15,27,11.40
2012,10,15,15,30,11.40
2012,10,15,15,31,11.40
2012,10,15,15,32,11.40
2012,10,15,15,33,11.40
2012,10,15,15,34,11.40
2012,10,15,15,35,11.40
2012,10,15,15,36,11.40
2012,10,15,15,37,11.40
2012,10,15,15,38,11.40
2012,10,15,15,39,11.40
2012,10,15,15,40,11.30
2012,10,15,15,41,11.30
2012,10,15,15,42,11.30
2012,10,15,15,43,11.30
2012,10,15,15,44,11.30
2012,10,15,15,45,11.30
2012,10,15,15,46,11.30
2012,10,15,15,47,11.30
2012,10,15,15,48,11.30
2012,10,15,15,49,11.30
2012,10,15,15,50,11.30
2012,10,15,15,51,11.30
2012,10,15,15,52,11.30
2012,10,15,15,53,11.30
2012,10,15,15,54,11.30
2012,10,15,15,55,11.30
2012,10,15,15,56,11.30
2012,10,15,15,57,11.30
2012,10,15,15,58,11.30
2012,10,15,15,59,11.30
2012,10,15,16,00,11.30
2012,10,15,16,01,11.30
2012,10,15,16,02,11.30
2012,10,15,16,03,11.30
2012,10,15,16,04,11.30
2012,10,15,16,05,11.30
2012,10,15,16,06,11.30
2012,10,15,16,07,11.30
2012,10,15,16,08,11.30
2012,10,15,16,09,11.30
2012,10,15,16,10,11.30
2012,10,15,16,11,11.30
2012,10,15,16,12,11.30
2012,10,15,16,13,11.30
2012,10,15,16,14,11.30
2012,10,15,16,15,11.30
2012,10,15,16,16,11.30
2012,10,15,16,17,11.30
2012,10,15,16,18,11.30
2012,10,15,16,19,11.30
2012,10,15,16,20,11.30
2012,10,15,16,21,11.30
2012,10,15,16,22,11.30
2012,10,15,16,23,11.30
2012,10,15,16,24,11.30
2012,10,15,16,25,11.30
2012,10,15,16,26,11.30
2012,10,15,16,27,11.30
2012,10,15,16,28,11.30
2012,10,15,16,29,11.30
2012,10,15,16,30,11.30
2012,10,15,16,31,11.30
2012,10,15,16,32,11.30
2012,10,15,16,33,11.30
2012,10,15,16,34,11.30
2012,10,15,16,35,11.30
2012,10,15,16,36,11.30
2012,10,15,16,37,11.30
2012,10,15,16,38,11.30
2012,10,15,16,39,11.30
2012,10,15,16,40,11.30
2012,10,15,16,41,11.30
2012,10,15,16,42,11.20
2012,10,15,16,43,11.20
2012,10,15,16,44,11.20
2012,10,15,16,45,11.20
2012,10,15,16,46,11.20
2012,10,15,16,47,11.20
2012,10,15,16,48,11.20
2012,10,15,16,49,11.20
2012,10,15,16,50,11.20
2012,10,15,16,51,11.20
2012,10,15,16,52,11.10
2012,10,15,16,53,11.10
2012,10,15,16,54,11.10
2012,10,15,16,55,11.10
2012,10,15,16,56,11.10
2012,10,15,16,57,11.10
2012,10,15,16,58,11.10
2012,10,15,16,59,11.10
2012,10,15,17,00,11.10
2012,10,15,17,01,11.10
2012,10,15,17,02,11.20
2012,10,15,17,03,11.20
2012,10,15,17,04,11.20
2012,10,15,17,05,11.20
2012,10,15,17,06,11.20
2012,10,15,17,07,11.20
2012,10,15,17,08,11.20
2012,10,15,17,09,11.20
2012,10,15,17,10,11.20
2012,10,15,17,11,11.20
2012,10,15,17,12,11.20
2012,10,15,17,13,11.20
2012,10,15,17,14,11.20
2012,10,15,17,15,11.20
2012,10,15,17,16,11.20
2012,10,15,17,17,11.10
2012,10,15,17,18,11.10
2012,10,15,17,19,11.10
2012,10,15,17,20,11.00
2012,10,15,17,21,11.00
2012,10,15,17,22,10.90
2012,10,15,17,23,10.90
2012,10,15,17,24,10.90
2012,10,15,17,25,10.80
2012,10,15,17,26,10.80
2012,10,15,17,27,10.80
2012,10,15,17,28,10.70
2012,10,15,17,29,10.70
2012,10,15,17,30,10.70
2012,10,15,17,31,10.70
2012,10,15,17,32,10.60
2012,10,15,17,33,10.60
2012,10,15,17,34,10.60
2012,10,15,17,35,10.60